Flag for Botswana Weather past 2 weeks in Molepolole, Botswana

Now
54 °F

Sunny.


Feels Like: 53 °F
Forecast: 46 / 79 °F
Wind: 5 mph from South

Location: Seretse Khama International Airport

Current Time: May 25, 2015 at 8:34:41 AM

Latest Report: May 25, 2015 at 8:00 AM


Visibility: 10 mi

Pressure: 30.21 "Hg

Humidity: 63%

Dew point: 41 °F

Location of MolepololeLocation

Historic Weather in Molepolole — Graph

°F

Molepolole temperature yesterday

Maximum temperature yesterday: 77 °F (at 4:00 PM)
Minimum temperature yesterday: 46 °F (at 7:00 AM)
Average temperature yesterday: 61 °F

Past Weeks' High & Low Weather Summary

 TemperatureHumidityPressure
High90 °F (May 15, 4:00 PM)82% (May 23, 5:00 AM)30.42 "Hg (May 23, 5:00 AM)
Low43 °F (May 25, 6:00 AM)10% (May 16, 3:00 PM)30.04 "Hg (May 13, 5:00 PM)
Average66 °F40%30.22 "Hg
* Reported May 10 7:00 AM — May 25 7:00 AM, Molepolole, Weather by CustomWeather, © 2015

Note: Actual official high and low records may vary slightly from our data, if they occured in-between our weather recording intervals... More about our weather records

Advertising

Molepolole weather history for previous 24 hours

 ConditionsComfort  
Time TempWeatherWind HumidityBarometerVisibility
7:00 AM
Mon, May 25
45 °FSunny.5 mph76%30.18 "Hg10 mi
6:00 AM43 °FSunny.7 mph81%30.18 "Hg10 mi
5:00 AM46 °FClear.3 mph71%30.18 "Hg10 mi
4:00 AM45 °FClear.6 mph76%30.18 "Hg10 mi
3:00 AM46 °FPassing clouds.3 mph76%30.18 "HgN/A
2:00 AM54 °FClear.3 mph63%30.18 "Hg10 mi
1:00 AM52 °FClear.5 mph67%30.18 "Hg10 mi
10:00 PM
Sun, May 24
55 °FClear.1 mph59%30.21 "Hg10 mi
9:00 PM59 °FPassing clouds.6 mph51%30.21 "HgN/A
8:00 PM63 °FClear.8 mph45%30.18 "Hg10 mi
7:00 PM64 °FClear.8 mph46%30.18 "Hg10 mi
6:00 PM70 °FClear.6 mph35%30.15 "Hg10 mi
5:00 PM75 °FPassing clouds.3 mph29%30.15 "HgN/A
4:00 PM77 °FSunny.3 mph28%30.15 "Hg10 mi
3:00 PM75 °FPassing clouds.6 mph31%30.15 "HgN/A
2:00 PM75 °FPassing clouds.6 mph31%30.18 "HgN/A
1:00 PM73 °FPassing clouds.7 mph33%30.21 "HgN/A
12:00 PM70 °FPassing clouds.7 mph40%30.24 "HgN/A
11:00 AM68 °FPassing clouds.7 mph49%30.30 "HgN/A
10:00 AM64 °FPassing clouds.5 mph52%30.30 "HgN/A
9:00 AM59 °FPassing clouds.3 mph63%30.30 "HgN/A
8:00 AM54 °FSunny.5 mph67%30.30 "Hg10 mi
Weather by CustomWeather, © 2015

See weather overviewHow to use our weather pages